EW1714 Weather Reports


Display with metric or nautical units.
time (UTC)temp
F
wind
direction
speed
MPH
gust
MPH
rain 1hr
in
rain 24hr
in
rain mn
in
humidity
%
barometer
mb
20260901104005 67 181 0.0 0.0 0.00 0.00 0.00 88 1018.4
20260901103502 67 181 0.0 0.0 0.00 0.00 0.00 87 1018.3
20260901103003 67 181 0.0 0.0 0.00 0.00 0.00 87 1018.2
20260901102503 68 181 0.0 0.0 0.00 0.00 0.00 86 1018.0
20260901102003 68 181 0.0 0.0 0.00 0.00 0.00 86 1018.0
20260901101506 68 181 0.0 4.0 0.00 0.00 0.00 84 1017.9
20260901101002 68 181 0.0 4.0 0.00 0.00 0.00 83 1017.9
20260901100503 68 181 0.0 3.0 0.00 0.00 0.00 82 1017.8
20260901100006 68 181 0.0 3.0 0.00 0.00 0.00 82 1017.8
20260901095504 68 181 0.0 3.0 0.00 0.00 0.00 82 1017.8
20260901095007 68 181 0.0 1.0 0.00 0.00 0.00 82 1017.8
20260901094509 68 181 0.0 0.0 0.00 0.00 0.00 81 1017.7
20260901094004 68 181 0.0 0.0 0.00 0.00 0.00 81 1017.7
20260901093503 68 181 0.0 0.0 0.00 0.00 0.00 81 1017.6
20260901093014 68 181 0.0 0.0 0.00 0.00 0.00 81 1017.7
20260901092508 68 181 0.0 0.0 0.00 0.00 0.00 81 1017.7
20260901092003 68 181 0.0 0.0 0.00 0.00 0.00 81 1017.7
20260901091503 68 181 0.0 0.0 0.00 0.00 0.00 81 1017.6
20260901091002 68 181 0.0 0.0 0.00 0.00 0.00 80 1017.6
20260901090503 68 181 0.0 0.0 0.00 0.00 0.00 80 1017.7
20260901090007 68 181 0.0 0.0 0.00 0.00 0.00 81 1017.7
20260901085503 68 181 0.0 0.0 0.00 0.00 0.00 81 1017.6
20260901085013 68 181 0.0 0.0 0.00 0.00 0.00 80 1017.6
20260901084504 68 181 0.0 0.0 0.00 0.00 0.00 80 1017.6
20260901084003 68 181 0.0 7.0 0.00 0.00 0.00 81 1017.6
20260901083505 68 181 0.0 7.0 0.00 0.00 0.00 81 1017.6
20260901083011 68 154 0.0 0.0 0.00 0.00 0.00 81 1017.6
20260901082504 68 154 0.0 0.0 0.00 0.00 0.00 81 1017.7
20260901082012 68 154 0.0 0.0 0.00 0.00 0.00 82 1017.7
20260901081517 68 153 0.0 0.0 0.00 0.00 0.00 82 1017.7
20260901081010 68 153 0.0 0.0 0.00 0.00 0.00 82 1017.8
20260901080513 69 153 0.0 0.0 0.00 0.00 0.00 81 1017.6
20260901080004 69 153 0.0 0.0 0.00 0.00 0.00 82 1017.6
20260901075504 69 153 0.0 0.0 0.00 0.00 0.00 82 1017.7
20260901075007 69 153 0.0 0.0 0.00 0.00 0.00 82 1017.6
20260901074504 69 153 0.0 0.0 0.00 0.00 0.00 82 1017.7
20260901074004 69 153 0.0 0.0 0.00 0.00 0.00 82 1017.8
20260901073504 69 153 0.0 0.0 0.00 0.00 0.00 81 1017.9
20260901073010 69 153 0.0 0.0 0.00 0.00 0.00 81 1018.0
20260901072506 69 153 0.0 0.0 0.00 0.00 0.00 81 1018.1
20260901072005 69 153 0.0 0.0 0.00 0.00 0.00 81 1018.1
20260901071513 69 188 0.0 0.0 0.00 0.00 0.00 81 1018.0
20260901071007 69 188 0.0 1.0 0.00 0.00 0.00 81 1018.0
20260901070510 69 188 0.0 1.0 0.00 0.00 0.00 81 1018.1
20260901070024 69 188 0.0 2.0 0.00 0.00 0.00 81 1018.1
20260901065508 69 188 0.0 4.0 0.00 0.00 0.00 82 1018.1
20260901065013 69 184 0.0 4.0 0.00 0.00 0.00 82 1018.2
20260901064510 69 182 0.0 0.0 0.00 0.00 0.00 82 1018.3
20260901064003 69 181 0.0 0.0 0.00 0.00 0.00 82 1018.3
20260901063504 69 181 0.0 0.0 0.00 0.00 0.00 82 1018.3
20260901063007 69 181 0.0 0.0 0.00 0.00 0.00 83 1018.2
20260901062504 68 181 0.0 0.0 0.00 0.00 0.00 83 1018.3
20260901062004 68 181 0.0 0.0 0.00 0.00 0.00 83 1018.4
20260901061509 68 181 0.0 0.0 0.00 0.00 0.00 83 1018.3
20260901061003 68 145 0.0 0.0 0.00 0.00 0.00 83 1018.2
20260901060509 68 145 0.0 0.0 0.00 0.00 0.00 83 1018.3
20260901060016 68 145 0.0 0.0 0.00 0.00 0.00 83 1018.4
20260901055510 68 145 0.0 1.0 0.00 0.00 0.00 83 1018.4
20260901055015 68 145 0.0 1.0 0.00 0.00 0.00 83 1018.4
20260901054523 68 197 0.0 0.0 0.00 0.00 0.00 83 1018.4
20260901054012 68 197 0.0 0.0 0.00 0.00 0.00 83 1018.3
20260901053511 68 197 0.0 0.0 0.00 0.00 0.00 83 1018.4
20260901053027 68 197 0.0 0.0 0.00 0.00 0.00 83 1018.4
20260901052503 68 197 0.0 0.0 0.00 0.00 0.00 82 1018.3
20260901052004 68 197 0.0 0.0 0.00 0.00 0.00 82 1018.2
20260901051508 68 197 0.0 0.0 0.00 0.00 0.00 83 1018.4
20260901051003 68 197 0.0 0.0 0.00 0.00 0.00 82 1018.2
20260901050507 68 197 0.0 0.0 0.00 0.00 0.00 81 1018.1
20260901050013 68 197 0.0 0.0 0.00 0.00 0.00 81 1018.1
20260901045509 68 197 0.0 0.0 0.00 0.00 0.00 81 1018.2
20260901045010 68 197 0.0 0.0 0.00 0.00 0.00 80 1018.2
20260901044536 68 197 0.0 0.0 0.00 0.00 0.00 80 1018.2
20260901044016 68 197 0.0 0.0 0.00 0.00 0.00 80 1018.2
20260901043514 69 197 0.0 0.0 0.00 0.00 0.00 80 1018.3
20260901043026 69 197 0.0 0.0 0.00 0.00 0.00 80 1018.2
20260901042515 69 197 0.0 0.0 0.00 0.00 0.00 80 1018.2
20260901042013 69 197 0.0 0.0 0.00 0.00 0.00 79 1018.1
20260901041532 69 197 0.0 0.0 0.00 0.00 0.00 79 1018.3
20260901041002 69 197 0.0 0.0 0.00 0.00 0.00 79 1018.3
20260901040503 69 197 0.0 0.0 0.00 0.00 0.00 79 1018.2
20260901040011 69 197 0.0 0.0 0.00 0.00 0.00 78 1018.2
20260901035506 69 197 0.0 0.0 0.00 0.00 0.00 79 1018.2
20260901035008 69 197 0.0 0.0 0.00 0.00 0.00 79 1018.2
20260901034527 69 197 0.0 0.0 0.00 0.00 0.00 79 1018.3
20260901034008 69 197 0.0 0.0 0.00 0.00 0.00 78 1018.4
20260901033510 69 197 0.0 0.0 0.00 0.00 0.00 77 1018.4
20260901033047 69 197 0.0 0.0 0.00 0.00 0.00 77 1018.4
20260901032512 69 197 0.0 0.0 0.00 0.00 0.00 78 1018.4
20260901032014 69 197 0.0 0.0 0.00 0.00 0.00 79 1018.4
20260901031532 69 197 0.0 0.0 0.00 0.00 0.00 79 1018.4
20260901031015 70 197 0.0 0.0 0.00 0.00 0.00 79 1018.6
20260901030514 70 197 0.0 0.0 0.00 0.00 0.00 79 1018.6
20260901030035 70 197 0.0 0.0 0.00 0.00 0.00 79 1018.5
20260901025517 70 197 0.0 0.0 0.00 0.00 0.00 78 1018.4
20260901025007 70 197 0.0 0.0 0.00 0.00 0.00 77 1018.4
20260901024521 70 197 0.0 0.0 0.00 0.00 0.00 77 1018.4
20260901024010 70 197 0.0 0.0 0.00 0.00 0.00 77 1018.3
20260901023508 70 197 0.0 0.0 0.00 0.00 0.00 77 1018.3
20260901023034 70 197 0.0 0.0 0.00 0.00 0.00 78 1018.4
20260901022511 70 197 0.0 0.0 0.00 0.00 0.00 78 1018.4
20260901022014 70 197 0.0 0.0 0.00 0.00 0.00 78 1018.4
20260901021531 70 197 0.0 0.0 0.00 0.00 0.00 78 1018.3
20260901021014 70 197 0.0 0.0 0.00 0.00 0.00 77 1018.2
20260901020515 70 197 0.0 0.0 0.00 0.00 0.00 76 1018.3
20260901020006 70 197 0.0 0.0 0.00 0.00 0.00 77 1018.3
20260901015502 70 197 0.0 0.0 0.00 0.00 0.00 76 1018.3
20260901015002 70 197 0.0 0.0 0.00 0.00 0.00 76 1018.4
20260901014503 70 197 0.0 0.0 0.00 0.00 0.00 75 1018.4
20260901014002 70 197 0.0 0.0 0.00 0.00 0.00 75 1018.4
20260901013502 70 197 0.0 0.0 0.00 0.00 0.00 75 1018.5
20260901013003 70 197 0.0 0.0 0.00 0.00 0.00 75 1018.5
20260901012503 70 197 0.0 0.0 0.00 0.00 0.00 74 1018.5
20260901012002 71 197 0.0 0.0 0.00 0.00 0.00 74 1018.6
20260901011504 71 197 0.0 0.0 0.00 0.00 0.00 74 1018.6
20260901011004 71 197 0.0 0.0 0.00 0.00 0.00 74 1018.6
20260901010502 71 197 0.0 0.0 0.00 0.00 0.00 72 1018.6
20260901010014 71 197 0.0 0.0 0.00 0.00 0.00 72 1018.7
20260901005505 71 197 0.0 0.0 0.00 0.00 0.00 72 1018.6
20260901005003 72 197 0.0 0.0 0.00 0.00 0.00 71 1018.6
20260901004502 72 197 0.0 0.0 0.00 0.00 0.00 71 1018.6
20260901004002 72 197 0.0 0.0 0.00 0.00 0.00 70 1018.5
20260901003502 72 197 0.0 0.0 0.00 0.00 0.00 69 1018.5
20260901003009 73 197 0.0 0.0 0.00 0.00 0.00 70 1018.4
20260901002503 73 197 0.0 0.0 0.00 0.00 0.00 69 1018.4
20260901002004 73 197 0.0 0.0 0.00 0.00 0.00 67 1018.3
20260901001506 73 197 0.0 0.0 0.00 0.00 0.00 67 1018.3
20260901001004 74 197 0.0 0.0 0.00 0.00 0.00 66 1018.2
20260901000502 74 197 0.0 0.0 0.00 0.00 0.00 66 1018.2
20260901000013 74 197 0.0 0.0 0.00 0.00 0.00 65 1018.2
20260831235503 74 197 0.0 0.0 0.00 0.00 0.00 64 1018.1
20260831235004 74 197 0.0 0.0 0.00 0.00 0.00 64 1018.2
20260831234504 74 197 0.0 1.0 0.00 0.00 0.00 64 1018.1
20260831234004 74 197 0.0 1.0 0.00 0.00 0.00 64 1018.2
20260831233506 74 198 0.0 0.0 0.00 0.00 0.00 64 1018.3
20260831233002 75 198 0.0 0.0 0.00 0.00 0.00 64 1018.4
20260831232504 75 198 0.0 0.0 0.00 0.00 0.00 64 1018.4
20260831232002 75 198 0.0 0.0 0.00 0.00 0.00 62 1018.4
20260831231505 75 198 0.0 0.0 0.00 0.00 0.00 62 1018.4
20260831231004 75 198 0.0 0.0 0.00 0.00 0.00 61 1018.4
20260831230503 76 198 0.0 0.0 0.00 0.00 0.00 61 1018.5
20260831230009 76 198 0.0 0.0 0.00 0.00 0.00 60 1018.6
20260831225503 76 198 0.0 1.0 0.00 0.00 0.00 60 1018.6
20260831225003 76 198 0.0 2.0 0.00 0.00 0.00 59 1018.7
20260831224504 76 198 0.0 5.0 0.00 0.00 0.00 59 1018.7
20260831224003 77 198 0.0 5.0 0.00 0.00 0.00 58 1018.7
20260831223504 77 174 0.0 4.0 0.00 0.00 0.00 58 1018.7
20260831223005 77 152 0.0 5.0 0.00 0.00 0.00 59 1018.7
20260831222504 77 209 0.0 6.0 0.00 0.00 0.00 58 1018.7
20260831222004 77 179 2.0 6.0 0.00 0.00 0.00 58 1018.8
20260831221508 77 169 0.0 4.0 0.00 0.00 0.00 58 1018.8
20260831221003 77 190 0.0 4.0 0.00 0.00 0.00 58 1018.7
20260831220503 77 217 0.0 1.0 0.00 0.00 0.00 59 1018.6
20260831220006 77 141 0.0 3.0 0.00 0.00 0.00 57 1018.6
20260831215505 78 117 0.0 3.0 0.00 0.00 0.00 57 1018.5
20260831215005 78 183 0.0 3.0 0.00 0.00 0.00 57 1018.5
20260831214508 78 184 0.0 3.0 0.00 0.00 0.00 56 1018.5
20260831214004 78 162 0.0 6.0 0.00 0.00 0.00 56 1018.6
20260831213509 78 202 1.0 6.0 0.00 0.00 0.00 55 1018.5
20260831213009 79 103 0.0 3.0 0.00 0.00 0.00 55 1018.5
20260831212504 79 120 0.0 2.0 0.00 0.00 0.00 54 1018.5
20260831212010 79 188 0.0 1.0 0.00 0.00 0.00 54 1018.6
20260831211505 79 227 0.0 2.0 0.00 0.00 0.00 54 1018.8
20260831211002 80 165 0.0 8.0 0.00 0.00 0.00 53 1018.7
20260831210507 80 119 1.0 8.0 0.00 0.00 0.00 52 1018.8
20260831210009 81 220 1.0 5.0 0.00 0.00 0.00 51 1018.8
20260831205503 81 158 2.0 5.0 0.00 0.00 0.00 50 1018.8
20260831205004 81 150 1.0 4.0 0.00 0.00 0.00 49 1018.9
20260831204508 82 199 0.0 3.0 0.00 0.00 0.00 47 1018.8
20260831204003 83 181 0.0 5.0 0.00 0.00 0.00 46 1018.8
20260831203505 84 141 0.0 5.0 0.00 0.00 0.00 45 1018.9
20260831203008 84 173 0.0 4.0 0.00 0.00 0.00 45 1018.9
20260831202504 85 267 0.0 5.0 0.00 0.00 0.00 45 1018.8
20260831202005 86 135 0.0 5.0 0.00 0.00 0.00 44 1018.9
20260831201508 86 282 0.0 4.0 0.00 0.00 0.00 43 1018.9
20260831201003 86 124 1.0 5.0 0.00 0.00 0.00 43 1018.9
20260831200502 86 195 0.0 5.0 0.00 0.00 0.00 44 1019.0
20260831200008 85 199 1.0 5.0 0.00 0.00 0.00 44 1018.9
20260831195504 85 160 0.0 5.0 0.00 0.00 0.00 43 1019.1
20260831195006 86 134 0.0 5.0 0.00 0.00 0.00 44 1019.1
20260831194519 86 181 0.0 5.0 0.00 0.00 0.00 43 1019.1
20260831194004 86 181 0.0 0.0 0.00 0.00 0.00 43 1019.0
20260831193504 86 181 0.0 9.0 0.00 0.00 0.00 44 1019.1
20260831193012 86 181 0.0 9.0 0.00 0.00 0.00 42 1019.2
20260831192505 87 191 1.0 8.0 0.00 0.00 0.00 42 1019.2
20260831192008 87 187 2.0 5.0 0.00 0.00 0.00 41 1019.2
20260831191512 86 193 0.0 6.0 0.00 0.00 0.00 42 1019.2
20260831191004 87 260 0.0 7.0 0.00 0.00 0.00 41 1019.4
20260831190504 87 131 3.0 7.0 0.00 0.00 0.00 41 1019.5
20260831190012 86 195 0.0 7.0 0.00 0.00 0.00 42 1019.5
20260831185505 86 166 1.0 7.0 0.00 0.00 0.00 42 1019.5
20260831185004 85 165 0.0 4.0 0.00 0.00 0.00 42 1019.5
20260831184510 85 191 1.0 4.0 0.00 0.00 0.00 42 1019.5
20260831184006 84 150 0.0 1.0 0.00 0.00 0.00 43 1019.5
20260831183504 84 149 0.0 3.0 0.00 0.00 0.00 44 1019.6
20260831183013 84 217 0.0 3.0 0.00 0.00 0.00 43 1019.8
20260831182504 84 169 0.0 1.0 0.00 0.00 0.00 41 1019.7
20260831182008 84 28 0.0 2.0 0.00 0.00 0.00 42 1019.9
20260831181512 84 86 0.0 3.0 0.00 0.00 0.00 40 1019.9
20260831181008 84 293 0.0 3.0 0.00 0.00 0.00 41 1020.0
20260831180507 84 23 0.0 4.0 0.00 0.00 0.00 44 1020.0
20260831180016 84 25 0.0 4.0 0.00 0.00 0.00 41 1020.0
20260831175506 84 341 0.0 5.0 0.00 0.00 0.00 40 1020.0
20260831175005 85 196 0.0 5.0 0.00 0.00 0.00 38 1020.0
20260831174516 85 122 1.0 5.0 0.00 0.00 0.00 40 1020.0
20260831174008 85 142 0.0 5.0 0.00 0.00 0.00 39 1020.0
20260831173510 85 169 0.0 4.0 0.00 0.00 0.00 39 1020.0
20260831173014 85 274 0.0 4.0 0.00 0.00 0.00 38 1020.1
20260831172508 85 93 0.0 3.0 0.00 0.00 0.00 39 1020.3
20260831172005 85 158 0.0 2.0 0.00 0.00 0.00 40 1020.4
20260831171518 84 158 0.0 2.0 0.00 0.00 0.00 39 1020.4
20260831171007 84 158 0.0 3.0 0.00 0.00 0.00 42 1020.4
20260831170510 84 158 0.0 4.0 0.00 0.00 0.00 41 1020.5
20260831170004 84 107 0.0 4.0 0.00 0.00 0.00 40 1020.5
20260831165504 84 140 1.0 4.0 0.00 0.00 0.00 40 1020.5
20260831165003 84 33 0.0 0.0 0.00 0.00 0.00 41 1020.6
20260831164513 84 33 0.0 2.0 0.00 0.00 0.00 41 1020.7
20260831164005 84 297 0.0 3.0 0.00 0.00 0.00 41 1020.7
20260831163506 84 198 0.0 3.0 0.00 0.00 0.00 40 1020.8
20260831163010 84 204 0.0 3.0 0.00 0.00 0.00 40 1020.7
20260831162504 84 56 0.0 3.0 0.00 0.00 0.00 40 1020.7
20260831162003 84 28 0.0 1.0 0.00 0.00 0.00 42 1020.8
20260831161507 84 346 0.0 4.0 0.00 0.00 0.00 44 1020.9
20260831161003 83 359 0.0 4.0 0.00 0.00 0.00 43 1020.9
20260831160505 83 97 0.0 4.0 0.00 0.00 0.00 40 1020.9
20260831160004 84 359 0.0 6.0 0.00 0.00 0.00 42 1020.9
20260831155503 84 354 0.0 6.0 0.00 0.00 0.00 41 1020.9
20260831155003 83 359 2.0 6.0 0.00 0.00 0.00 42 1021.0
20260831154515 83 18 0.0 3.0 0.00 0.00 0.00 46 1020.9
20260831154004 83 56 0.0 3.0 0.00 0.00 0.00 44 1021.0
20260831153507 83 338 0.0 5.0 0.00 0.00 0.00 45 1020.9
20260831153008 82 359 0.0 5.0 0.00 0.00 0.00 46 1020.9
20260831152505 82 352 0.0 3.0 0.00 0.00 0.00 45 1021.1
20260831152005 82 350 0.0 4.0 0.00 0.00 0.00 45 1021.3
20260831151513 82 359 1.0 6.0 0.00 0.00 0.00 45 1021.4
20260831151008 81 47 2.0 6.0 0.00 0.00 0.00 46 1021.5
20260831150507 81 64 0.0 5.0 0.00 0.00 0.00 46 1021.4
20260831150012 81 28 0.0 5.0 0.00 0.00 0.00 47 1021.5
20260831145505 80 358 1.0 5.0 0.00 0.00 0.00 48 1021.5
20260831145009 79 359 0.0 4.0 0.00 0.00 0.00 50 1021.6
20260831144514 78 18 0.0 3.0 0.00 0.00 0.00 51 1021.6
20260831144003 77 45 0.0 3.0 0.00 0.00 0.00 53 1021.6
20260831143504 76 44 0.0 2.0 0.00 0.00 0.00 54 1021.6
20260831143005 75 131 0.0 3.0 0.00 0.00 0.00 56 1021.6
20260831142505 74 134 0.0 3.0 0.00 0.00 0.00 57 1021.7
20260831142004 73 264 0.0 1.0 0.00 0.00 0.00 60 1021.7
20260831141508 72 230 0.0 4.0 0.00 0.00 0.00 62 1021.8
20260831141006 71 231 0.0 4.0 0.00 0.00 0.00 63 1021.7
20260831140508 69 92 0.0 2.0 0.00 0.00 0.00 65 1021.6
20260831140016 68 1 0.0 2.0 0.00 0.00 0.00 68 1021.7
20260831135508 67 3 0.0 0.0 0.00 0.00 0.00 68 1021.6
20260831135009 67 3 0.0 0.0 0.00 0.00 0.00 70 1021.6
20260831134514 66 3 0.0 2.0 0.00 0.00 0.00 72 1021.6
20260831134008 66 3 0.0 2.0 0.00 0.00 0.00 73 1021.6
20260831133507 65 13 0.0 0.0 0.00 0.00 0.00 74 1021.6
20260831133019 65 359 0.0 4.0 0.00 0.00 0.00 74 1021.6
20260831132504 65 359 1.0 4.0 0.00 0.00 0.00 75 1021.6
20260831132003 64 353 0.0 0.0 0.00 0.00 0.00 73 1021.5
20260831131508 64 354 0.0 3.0 0.00 0.00 0.00 75 1021.5
20260831131009 64 353 0.0 3.0 0.00 0.00 0.00 75 1021.6
20260831130507 64 7 0.0 3.0 0.00 0.00 0.00 74 1021.5
20260831130013 63 359 0.0 0.0 0.00 0.00 0.00 75 1021.4
20260831125508 63 359 0.0 0.0 0.00 0.00 0.00 77 1021.4
20260831125009 63 359 0.0 2.0 0.00 0.00 0.00 76 1021.5
20260831124520 62 359 0.0 2.0 0.00 0.00 0.00 79 1021.5
20260831124008 62 342 0.0 3.0 0.00 0.00 0.00 80 1021.5
20260831123511 62 359 0.0 6.0 0.00 0.00 0.00 81 1021.4
20260831123017 61 340 0.0 6.0 0.00 0.00 0.00 83 1021.4
20260831122510 61 1 1.0 6.0 0.00 0.00 0.00 85 1021.4
20260831122010 60 338 0.0 5.0 0.00 0.00 0.00 86 1021.4
20260831121517 60 325 0.0 4.0 0.00 0.00 0.00 88 1021.3
20260831121011 60 360 0.0 3.0 0.00 0.00 0.00 89 1021.3
20260831120503 59 20 0.0 2.0 0.00 0.00 0.00 91 1021.3
20260831120011 59 23 0.0 2.0 0.00 0.00 0.00 91 1021.3
20260831115507 59 149 0.0 0.0 0.00 0.00 0.00 93 1021.2
20260831115005 59 149 0.0 0.0 0.00 0.00 0.00 94 1021.2
20260831114513 58 149 0.0 0.0 0.00 0.00 0.00 94 1021.1
20260831114011 58 149 0.0 0.0 0.00 0.00 0.00 94 1021.0
20260831113512 58 149 0.0 0.0 0.00 0.00 0.00 94 1020.9
20260831113023 58 149 0.0 0.0 0.00 0.00 0.00 94 1020.9
20260831112513 58 149 0.0 0.0 0.00 0.00 0.00 94 1020.9
20260831112010 58 149 0.0 0.0 0.00 0.00 0.00 94 1020.9
20260831111525 58 149 0.0 0.0 0.00 0.00 0.00 94 1021.0
20260831111010 58 149 0.0 0.0 0.00 0.00 0.00 94 1021.0
20260831110510 57 149 0.0 0.0 0.00 0.00 0.00 93 1020.9
20260831110033 58 149 0.0 0.0 0.00 0.00 0.00 93 1020.8
20260831105514 58 149 0.0 0.0 0.00 0.00 0.00 93 1020.7
20260831105003 58 149 0.0 0.0 0.00 0.00 0.00 93 1020.7
20260831104523 58 149 0.0 0.0 0.00 0.00 0.00 93 1020.7